• In Belarus
  • List of Countries
  • For 7 days
  • Water Temperature
  • Satellite Maps
  • Weather Map
  • Weather Widgets
  • user-avatar
    Login

    Hourly Weather Batumi

    Today, 17 January, Wednesday

    Time Temperature Precipitation Wind Pressure Humidity
    00:00 +4°C° 0 mm 4 mps 765 mmHg 61%
    01:00 +4°C° 0 mm 4 mps 765 mmHg 62%
    02:00 +4°C° 0 mm 4 mps 764 mmHg 62%
    03:00 +6°C° 0 mm 4 mps 763 mmHg 62%
    04:00 +5°C° 0.1 mm 4 mps 763 mmHg 65%
    05:00 +5°C° 0.1 mm 4 mps 763 mmHg 68%
    06:00 +5°C° 0.1 mm 4 mps 763 mmHg 71%
    07:00 +5°C° 0.1 mm 4 mps 763 mmHg 71%
    08:00 +6°C° 0.1 mm 4 mps 763 mmHg 71%
    09:00 +6°C° 0 mm 4 mps 762 mmHg 72%
    10:00 +8°C° 0.1 mm 3 mps 762 mmHg 70%
    11:00 +9°C° 0.1 mm 3 mps 761 mmHg 67%
    12:00 +10°C° 0.1 mm 3 mps 761 mmHg 65%
    13:00 +10°C° 0.1 mm 3 mps 760 mmHg 64%
    14:00 +10°C° 0.1 mm 3 mps 760 mmHg 64%
    15:00 +10°C° 0 mm 3 mps 760 mmHg 64%
    16:00 +9°C° 0.1 mm 3 mps 760 mmHg 68%
    17:00 +9°C° 0.1 mm 3 mps 760 mmHg 71%
    18:00 +7°C° 0.1 mm 4 mps 760 mmHg 75%
    19:00 +7°C° 0.2 mm 4 mps 760 mmHg 75%
    20:00 +7°C° 0.2 mm 4 mps 760 mmHg 76%
    21:00 +6°C° 0.2 mm 4 mps 760 mmHg 76%
    22:00 +6°C° 0.2 mm 4 mps 759 mmHg 76%
    23:00 +6°C° 0.2 mm 4 mps 759 mmHg 77%

    Tomorrow, 18 January, Thursday

    Time Temperature Precipitation Wind Pressure Humidity
    00:00 +6°C° 0.2 mm 4 mps 759 mmHg 77%
    01:00 +6°C° 0.1 mm 4 mps 758 mmHg 76%
    02:00 +6°C° 0.1 mm 4 mps 758 mmHg 76%
    03:00 +6°C° 0.1 mm 4 mps 758 mmHg 75%
    04:00 +6°C° 0 mm 5 mps 757 mmHg 75%
    05:00 +6°C° 0 mm 5 mps 757 mmHg 74%
    06:00 +6°C° 0 mm 5 mps 757 mmHg 73%
    07:00 +6°C° 0 mm 5 mps 756 mmHg 72%
    08:00 +7°C° 0 mm 5 mps 756 mmHg 71%
    09:00 +7°C° 0 mm 6 mps 755 mmHg 70%
    10:00 +9°C° 0 mm 6 mps 754 mmHg 68%
    11:00 +10°C° 0 mm 6 mps 753 mmHg 65%
    12:00 +13°C° 0 mm 6 mps 752 mmHg 63%
    13:00 +13°C° 0.1 mm 6 mps 751 mmHg 65%
    14:00 +12°C° 0.1 mm 7 mps 750 mmHg 67%
    15:00 +12°C° 0.1 mm 7 mps 749 mmHg 68%
    16:00 +11°C° 0.3 mm 7 mps 749 mmHg 71%
    17:00 +11°C° 0.3 mm 6 mps 749 mmHg 73%
    18:00 +10°C° 0.3 mm 6 mps 749 mmHg 76%
    19:00 +10°C° 0.3 mm 7 mps 749 mmHg 76%
    20:00 +10°C° 0.3 mm 7 mps 749 mmHg 75%
    21:00 +10°C° 0.3 mm 8 mps 749 mmHg 75%
    22:00 +10°C° 0.2 mm 7 mps 749 mmHg 78%
    23:00 +9°C° 0.2 mm 5 mps 750 mmHg 81%

    Day after tomorrow, 19 January, Friday

    Time Temperature Precipitation Wind Pressure Humidity
    00:00 +10°C° 0.2 mm 4 mps 750 mmHg 84%
    01:00 +8°C° 1.3 mm 5 mps 751 mmHg 87%
    02:00 +8°C° 1.3 mm 5 mps 751 mmHg 90%
    03:00 +8°C° 1.3 mm 6 mps 752 mmHg 93%
    04:00 +7°C° 1.3 mm 5 mps 752 mmHg 94%
    05:00 +7°C° 1.3 mm 5 mps 753 mmHg 94%
    06:00 +7°C° 1.3 mm 5 mps 754 mmHg 94%
    07:00 +7°C° 1.7 mm 5 mps 755 mmHg 94%
    08:00 +7°C° 1.7 mm 5 mps 756 mmHg 94%
    09:00 +6°C° 1.7 mm 4 mps 757 mmHg 94%
    10:00 +6°C° 1.5 mm 4 mps 758 mmHg 94%
    11:00 +6°C° 1.5 mm 4 mps 758 mmHg 94%
    12:00 +6°C° 1.5 mm 4 mps 759 mmHg 93%
    13:00 +6°C° 0.8 mm 4 mps 759 mmHg 93%
    14:00 +6°C° 0.8 mm 4 mps 760 mmHg 93%
    15:00 +6°C° 0.8 mm 4 mps 760 mmHg 92%
    16:00 +6°C° 0.6 mm 4 mps 761 mmHg 93%
    17:00 +5°C° 0.6 mm 4 mps 762 mmHg 93%
    18:00 +5°C° 0.6 mm 4 mps 763 mmHg 93%
    19:00 +5°C° 0.5 mm 3 mps 764 mmHg 94%
    20:00 +5°C° 0.5 mm 3 mps 764 mmHg 94%
    21:00 +5°C° 0.5 mm 3 mps 764 mmHg 94%
    22:00 +5°C° 0.3 mm 3 mps 765 mmHg 94%
    23:00 +5°C° 0.3 mm 3 mps 765 mmHg 94%

    20 January, Saturday

    Time Temperature Precipitation Wind Pressure Humidity
    00:00 +5°C° 0.3 mm 3 mps 766 mmHg 94%
    01:00 +5°C° 0.2 mm 3 mps 766 mmHg 93%
    02:00 +6°C° 0.2 mm 2 mps 766 mmHg 93%
    03:00 +6°C° 0.2 mm 2 mps 767 mmHg 92%
    04:00 +5°C° 0.1 mm 2 mps 767 mmHg 92%
    05:00 +5°C° 0.1 mm 2 mps 767 mmHg 91%
    06:00 +6°C° 0.1 mm 1 mps 767 mmHg 90%
    07:00 +7°C° 0 mm 1 mps 767 mmHg 89%
    08:00 +7°C° 0 mm 1 mps 768 mmHg 87%
    09:00 +8°C° 0 mm 1 mps 768 mmHg 85%
    10:00 +8°C° 0 mm 2 mps 767 mmHg 85%
    11:00 +9°C° 0 mm 2 mps 767 mmHg 85%
    12:00 +10°C° 0 mm 2 mps 766 mmHg 84%
    13:00 +11°C° 0 mm 3 mps 765 mmHg 85%
    14:00 +11°C° 0 mm 3 mps 765 mmHg 85%
    15:00 +11°C° 0 mm 3 mps 764 mmHg 85%
    16:00 +10°C° 0 mm 3 mps 765 mmHg 83%
    17:00 +8°C° 0 mm 4 mps 765 mmHg 81%
    18:00 +6°C° 0 mm 4 mps 765 mmHg 79%
    19:00 +6°C° 0 mm 4 mps 766 mmHg 75%
    20:00 +6°C° 0 mm 4 mps 766 mmHg 71%
    21:00 +5°C° 0 mm 4 mps 766 mmHg 67%
    22:00 +5°C° 0 mm 4 mps 766 mmHg 65%
    23:00 +5°C° 0 mm 4 mps 766 mmHg 64%

    21 January, Sunday

    Time Temperature Precipitation Wind Pressure Humidity
    00:00 +5°C° 0 mm 4 mps 766 mmHg 62%
    01:00 +5°C° 0 mm 4 mps 766 mmHg 61%
    02:00 +5°C° 0 mm 4 mps 766 mmHg 60%
    03:00 +5°C° 0 mm 4 mps 766 mmHg 59%
    04:00 +5°C° 0 mm 4 mps 766 mmHg 59%
    05:00 +5°C° 0 mm 4 mps 766 mmHg 59%
    06:00 +5°C° 0 mm 4 mps 766 mmHg 59%
    07:00 +6°C° 0 mm 4 mps 766 mmHg 60%
    08:00 +7°C° 0 mm 4 mps 766 mmHg 61%
    09:00 +7°C° 0 mm 4 mps 766 mmHg 62%
    10:00 +10°C° 0 mm 4 mps 765 mmHg 65%
    11:00 +12°C° 0 mm 3 mps 765 mmHg 69%
    12:00 +13°C° 0 mm 3 mps 764 mmHg 72%
    13:00 +13°C° 0 mm 3 mps 764 mmHg 74%
    14:00 +15°C° 0 mm 2 mps 763 mmHg 75%
    15:00 +15°C° 0 mm 2 mps 763 mmHg 77%
    16:00 +13°C° 0 mm 2 mps 764 mmHg 74%
    17:00 +11°C° 0 mm 3 mps 764 mmHg 71%
    18:00 +9°C° 0 mm 3 mps 764 mmHg 68%
    19:00 +9°C° 0 mm 3 mps 764 mmHg 65%
    20:00 +8°C° 0 mm 3 mps 764 mmHg 62%
    21:00 +7°C° 0 mm 4 mps 764 mmHg 59%
    22:00 +7°C° 0 mm 4 mps 764 mmHg 58%
    23:00 +7°C° 0 mm 4 mps 764 mmHg 58%

    22 January, Monday

    Time Temperature Precipitation Wind Pressure Humidity
    00:00 +6°C° 0 mm 4 mps 763 mmHg 57%
    01:00 +6°C° 0 mm 4 mps 763 mmHg 57%
    02:00 +7°C° 0 mm 4 mps 762 mmHg 57%
    03:00 +7°C° 0 mm 4 mps 762 mmHg 57%
    04:00 +7°C° 0 mm 4 mps 762 mmHg 58%
    05:00 +8°C° 0 mm 3 mps 761 mmHg 59%
    06:00 +8°C° 0 mm 3 mps 761 mmHg 60%
    07:00 +8°C° 0 mm 3 mps 760 mmHg 61%
    08:00 +9°C° 0 mm 3 mps 760 mmHg 61%
    09:00 +9°C° 0 mm 3 mps 760 mmHg 62%
    10:00 +11°C° 0 mm 3 mps 759 mmHg 64%
    11:00 +12°C° 0 mm 3 mps 758 mmHg 65%
    12:00 +13°C° 0 mm 3 mps 757 mmHg 67%
    13:00 +13°C° 0 mm 3 mps 757 mmHg 68%
    14:00 +14°C° 0 mm 2 mps 757 mmHg 69%
    15:00 +15°C° 0 mm 2 mps 756 mmHg 70%
    16:00 +13°C° 0 mm 2 mps 757 mmHg 70%
    17:00 +12°C° 0 mm 2 mps 757 mmHg 70%
    18:00 +10°C° 0 mm 3 mps 758 mmHg 70%
    19:00 +10°C° 0 mm 3 mps 758 mmHg 69%
    20:00 +9°C° 0 mm 3 mps 758 mmHg 68%
    21:00 +9°C° 0 mm 3 mps 759 mmHg 67%
    22:00 +9°C° 0 mm 3 mps 759 mmHg 67%
    23:00 +9°C° 0 mm 3 mps 759 mmHg 67%
    Show more